This demonstration page uses our WeatherBlox Daily Observations layout. Learn more.

Left ArrowRight Arrow

Hourly Observations for April 14, 2015

Temp ( °F °C ) Dew Point ( °F °C ) Humidity (%) Winds ( mph kmh ) Pressure ( in mb ) Visibility ( mi km ) Precip ( " mm )
12:16 am 00:16 Clear 54 12 34 1 47 47 N 9 15 30.18 1022 10 16.0934 N/A
12:36 am 00:36 Clear 54 12 34 1 47 47 N 9 15 30.18 1022 10 16.0934 N/A
12:55 am 00:55 Clear 52 11 36 2 54 54 NNE 7 11 30.18 1022 10 16.0934 N/A
1:16 am 01:16 Clear 52 11 37 3 58 58 NE 5 7 30.18 1022 10 16.0934 N/A
1:36 am 01:36 Clear 52 11 37 3 58 58 NNE 7 11 30.21 1023 10 16.0934 N/A
1:55 am 01:55 Clear 52 11 39 4 62 62 NNE 7 11 30.21 1023 10 16.0934 N/A
2:16 am 02:16 Clear 52 11 39 4 62 62 NNE 7 11 30.21 1023 10 16.0934 N/A
2:36 am 02:36 Clear 52 11 37 3 58 58 NE 6 9 30.18 1022 10 16.0934 N/A
2:55 am 02:55 Clear 50 10 39 4 67 67 NE 6 9 30.18 1022 10 16.0934 N/A
3:16 am 03:16 Clear 50 10 37 3 62 62 ENE 7 11 30.18 1022 10 16.0934 N/A
3:36 am 03:36 Clear 50 10 37 3 62 62 E 6 9 30.18 1022 10 16.0934 N/A
3:56 am 03:56 Clear 50 10 36 2 58 58 ENE 7 11 30.18 1022 10 16.0934 N/A
4:16 am 04:16 Clear 50 10 37 3 62 62 ENE 6 9 30.18 1022 10 16.0934 N/A
4:36 am 04:36 Clear 50 10 37 3 62 62 NE 7 11 30.18 1022 10 16.0934 N/A
4:56 am 04:56 Clear 48 9 37 3 66 66 NE 7 11 30.18 1022 10 16.0934 N/A
5:16 am 05:16 Clear 48 9 37 3 66 66 NE 6 9 30.18 1022 10 16.0934 N/A
5:35 am 05:35 Clear 48 9 36 2 62 62 ENE 5 7 30.18 1022 10 16.0934 N/A
5:56 am 05:56 Clear 48 9 36 2 62 62 NNE 6 9 30.18 1022 10 16.0934 N/A
6:16 am 06:16 Clear 48 9 37 3 66 66 NNE 8 13 30.18 1022 10 16.0934 N/A
6:35 am 06:35 Clear 48 9 37 3 66 66 NNE 7 11 30.18 1022 10 16.0934 N/A
6:56 am 06:56 Clear 46 8 37 3 71 71 NNE 7 11 30.18 1022 10 16.0934 N/A
7:16 am 07:16 Sunny 48 9 36 2 62 62 NNE 7 11 30.21 1023 10 16.0934 N/A
7:35 am 07:35 Sunny 48 9 36 2 62 62 N 6 9 30.21 1023 10 16.0934 N/A
7:56 am 07:56 Sunny 48 9 36 2 62 62 N 7 11 30.21 1023 10 16.0934 N/A
8:16 am 08:16 Sunny 48 9 36 2 62 62 N 9 15 30.21 1023 10 16.0934 N/A
8:36 am 08:36 Sunny 48 9 36 2 62 62 N 9 15 30.21 1023 10 16.0934 N/A
8:56 am 08:56 Sunny 50 10 36 2 58 58 NNE 8 13 30.21 1023 10 16.0934 N/A
9:15 am 09:15 Sunny 50 10 36 2 58 58 NNE 9 15 30.21 1023 10 16.0934 N/A
9:36 am 09:36 Sunny 52 11 34 1 50 50 NNE 9 15 30.21 1023 10 16.0934 N/A
9:56 am 09:56 Sunny 54 12 34 1 47 47 NE 10 17 30.24 1024 10 16.0934 N/A
10:15 am 10:15 Sunny 54 12 32 0 44 44 NE 9 15 30.24 1024 10 16.0934 N/A
10:36 am 10:36 Sunny 54 12 32 0 44 44 NE 9 15 30.24 1024 10 16.0934 N/A
10:56 am 10:56 Sunny 55 13 32 0 41 41 NE 12 19 30.24 1024 10 16.0934 N/A
11:15 am 11:15 Sunny 55 13 30 -1 38 38 NE 12 19 30.24 1024 10 16.0934 N/A
11:36 am 11:36 Sunny 55 13 30 -1 38 38 NE 10 17 30.24 1024 10 16.0934 N/A
11:56 am 11:56 Sunny 57 14 30 -1 36 36 NE 10 17 30.21 1023 10 16.0934 N/A
12:16 pm 12:16 Sunny 59 15 28 -2 31 31 NNE 12 19 30.21 1023 10 16.0934 N/A
12:36 pm 12:36 Sunny 59 15 30 -1 34 34 NE 12 19 30.21 1023 10 16.0934 N/A
12:55 pm 12:55 Sunny 59 15 28 -2 31 31 NE 10 17 30.21 1023 10 16.0934 N/A
1:16 pm 13:16 Sunny 59 15 25 -4 27 27 ENE 10 17 30.21 1023 10 16.0934 N/A
1:36 pm 13:36 Sunny 59 15 27 -3 29 29 ENE 10 17 30.21 1023 10 16.0934 N/A
1:56 pm 13:56 Sunny 59 15 23 -5 25 25 ENE 14 22 30.18 1022 10 16.0934 N/A
2:16 pm 14:16 Sunny 61 16 21 -6 22 22 ENE 14 22 30.18 1022 10 16.0934 N/A
2:36 pm 14:36 Sunny 61 16 19 -7 20 20 ENE 15 24 30.18 1022 10 16.0934 N/A
2:56 pm 14:56 Sunny 61 16 19 -7 20 20 ENE 13 20 30.18 1022 10 16.0934 N/A
3:16 pm 15:16 Sunny 63 17 19 -7 19 19 ENE 9 15 30.18 1022 10 16.0934 N/A
3:35 pm 15:35 Sunny 61 16 18 -8 19 19 NE 14 22 30.18 1022 10 16.0934 N/A
3:56 pm 15:56 Sunny 63 17 16 -9 16 16 ENE 13 20 30.18 1022 10 16.0934 N/A
4:16 pm 16:16 Sunny 63 17 18 -8 17 17 E 15 24 30.18 1022 10 16.0934 N/A
4:35 pm 16:35 Sunny 63 17 14 -10 15 15 ENE 15 24 30.18 1022 10 16.0934 N/A
4:56 pm 16:56 Sunny 63 17 16 -9 16 16 NE 13 20 30.18 1022 10 16.0934 N/A
5:16 pm 17:16 Sunny 61 16 12 -11 15 15 ENE 9 15 30.18 1022 10 16.0934 N/A
5:36 pm 17:36 Sunny 61 16 16 -9 17 17 NE 10 17 30.18 1022 10 16.0934 N/A
5:56 pm 17:56 Sunny 61 16 16 -9 17 17 NE 8 13 30.18 1022 10 16.0934 N/A
6:16 pm 18:16 Sunny 61 16 14 -10 16 16 NE 12 19 30.18 1022 10 16.0934 N/A
6:36 pm 18:36 Sunny 63 17 18 -8 17 17 ENE 8 13 30.18 1022 10 16.0934 N/A
6:56 pm 18:56 Sunny 61 16 18 -8 19 19 ENE 9 15 30.18 1022 10 16.0934 N/A
7:16 pm 19:16 Sunny 61 16 16 -9 17 17 ENE 8 13 30.18 1022 10 16.0934 N/A
7:36 pm 19:36 Sunny 59 15 21 -6 23 23 NE 7 11 30.18 1022 10 16.0934 N/A
7:56 pm 19:56 Sunny 57 14 25 -4 29 29 NNE 8 13 30.18 1022 10 16.0934 N/A
8:16 pm 20:16 Sunny 55 13 27 -3 33 33 NE 9 15 30.21 1023 10 16.0934 N/A
8:36 pm 20:36 Clear 55 13 27 -3 33 33 NNE 8 13 30.21 1023 10 16.0934 N/A
8:56 pm 20:56 Clear 54 12 27 -3 35 35 NNE 8 13 30.21 1023 10 16.0934 N/A
9:16 pm 21:16 Clear 52 11 28 -2 41 41 NE 7 11 30.21 1023 10 16.0934 N/A
9:36 pm 21:36 Clear 52 11 27 -3 38 38 NNE 8 13 30.21 1023 10 16.0934 N/A
9:56 pm 21:56 Clear 50 10 27 -3 40 40 NE 7 11 30.21 1023 10 16.0934 N/A
10:16 pm 22:16 Clear 50 10 28 -2 43 43 NE 6 9 30.21 1023 10 16.0934 N/A
10:36 pm 22:36 Clear 48 9 27 -3 43 43 ENE 5 7 30.24 1024 10 16.0934 N/A
10:56 pm 22:56 Clear 48 9 28 -2 46 46 ENE 6 9 30.24 1024 10 16.0934 N/A
11:16 pm 23:16 Clear 48 9 28 -2 46 46 ENE 7 11 30.21 1023 10 16.0934 N/A
11:36 pm 23:36 Clear 48 9 27 -3 43 43 ENE 8 13 30.21 1023 10 16.0934 N/A
11:55 pm 23:55 Clear 46 8 27 -3 46 46 ENE 7 11 30.21 1023 10 16.0934 N/A

Powered by AerisWeather